This demonstration page uses our WeatherBlox Daily Observations layout. Learn more.

Left ArrowRight Arrow

34.74481, -87.66753

Hourly Observations for April 14, 2021

Temp ( °F °C ) Dew Point ( °F °C ) Humidity (%) Winds ( mph kmh ) Pressure ( in mb ) Visibility ( mi km ) Precip ( " mm )
12:53 am 00:53 Clear 58 14.4 51 10.6 78 78 Calm 30.04 1017 10 16 0.00 0.00
1:53 am 01:53 Clear 57 13.9 51 10.6 81 81 Calm 30.04 1017 10 16 0.00 0.00
2:53 am 02:53 Clear 55 12.8 50 10 83 83 Calm 30.03 1017 10 16 0.00 0.00
3:53 am 03:53 Clear 56 13.3 51 10.6 84 84 Calm 30.01 1016 10 16 0.00 0.00
4:53 am 04:53 Clear 54 12.2 50 10 87 87 Calm 30.02 1017 10 16 0.00 0.00
5:53 am 05:53 Clear 55 12.8 49 9.4 80 80 Calm 30.03 1017 10 16 0.00 0.00
6:53 am 06:53 Sunny 54 12.2 49 9.4 83 83 SE 3 6 30.04 1017 10 16 0.00 0.00
7:53 am 07:53 Sunny 61 16.1 54 12.2 78 78 Calm 30.06 1018 10 16 0.00 0.00
8:53 am 08:53 Sunny 66 18.9 53 11.7 63 63 WNW 7 11 30.08 1019 10 16 0.00 0.00
9:53 am 09:53 Sunny 67 19.4 54 12.2 63 63 VRB 3 6 30.07 1018 10 16 0.00 0.00
10:53 am 10:53 Partly Cloudy 68 20 53 11.7 59 59 N 6 9 30.06 1018 10 16 0.00 0.00
11:53 am 11:53 Mostly Sunny 67 19.4 53 11.7 61 61 NE 3 6 30.05 1018 10 16 0.00 0.00
12:53 pm 12:53 Cloudy with Light Rain 65 18.3 56 13.3 73 73 SSE 6 9 30.02 1017 6 10 0.02 0.51
1:53 pm 13:53 Cloudy 66 18.9 57 13.9 73 73 Calm 30.01 1016 9 14 0.02 0.51
2:49 pm 14:49 Cloudy 64 18 55 13 73 73 N 6 9 30.01 1016 10 16 0.00 0.00
2:53 pm 14:53 Cloudy 66 18.9 56 13.3 70 70 N 3 6 30.01 1016 10 16 0.00 0.00
3:05 pm 15:05 Mostly Cloudy 67 19.4 56 13.3 68 68 NNW 7 11 30.00 1016 10 16 0.00 0.00
3:53 pm 15:53 Cloudy 67 19.4 56 13.3 68 68 Calm 30.00 1016 10 16 0.00 0.00
4:33 pm 16:33 Cloudy 67 19.4 56 13.3 68 68 W 3 6 30.00 1016 10 16 0.00 0.00
4:53 pm 16:53 Cloudy 67 19.4 57 13.9 71 71 WNW 7 11 30.01 1016 10 16 0.00 0.00
5:35 pm 17:35 Cloudy 63 17.2 49 9.4 60 60 NNW 6 9 30.01 1016 10 16 0.00 0.00
5:53 pm 17:53 Cloudy 63 17.2 48 8.9 58 58 N 7 11 30.01 1016 10 16 0.00 0.00
6:53 pm 18:53 Cloudy 62 16.7 49 9.4 62 62 N 3 6 30.00 1016 10 16 0.00 0.00
7:34 pm 19:34 Cloudy 62 16.7 49 9.4 62 62 Calm 30.01 1016 10 16 0.00 0.00
7:53 pm 19:53 Cloudy 62 16.7 49 9.4 62 62 Calm 30.01 1016 10 16 0.00 0.00
8:53 pm 20:53 Cloudy 61 16.1 48 8.9 63 63 NNE 6 9 30.02 1017 10 16 0.00 0.00
9:53 pm 21:53 Cloudy 60 15.6 47 8.3 62 62 NE 7 11 30.01 1016 10 16 0.00 0.00
10:53 pm 22:53 Cloudy 60 15.6 47 8.3 62 62 ENE 5 7 29.98 1015 10 16 0.00 0.00
11:53 pm 23:53 Cloudy 60 15.6 48 8.9 65 65 Calm 30.01 1016 10 16 0.00 0.00

Powered by AerisWeather